When you browse on this site, cookies collect data to enhance your experience and personalize the content and advertising you see.
Visit our Privacy Policy to learn more. By continuing to use the site, you agree to this use of cookies and data.
  • In Österreich
  • Länderverzeichnis
  • Für 7 Tage
  • Wassertemperatur
  • Satellitenkarten
  • Wetterkarte
  • News
  • Widgets
  • user-avatar
    Anmelden

    Stündliche Wetter Wien

    Heute, 17 Juni, Montag

    Zeit Temperatur Niederschläge Wind Luftdruck Luftfeuchtigkeit
    00:00 +19°C° 0 mm 4 m/S 746 mmHg 78%
    01:00 +18°C° 0 mm 4 m/S 746 mmHg 81%
    02:00 +18°C° 0 mm 3 m/S 746 mmHg 82%
    03:00 +17°C° 0 mm 3 m/S 746 mmHg 82%
    04:00 +17°C° 0 mm 3 m/S 746 mmHg 83%
    05:00 +18°C° 0 mm 3 m/S 746 mmHg 78%
    06:00 +19°C° 0 mm 4 m/S 746 mmHg 73%
    07:00 +20°C° 0 mm 3 m/S 746 mmHg 69%
    08:00 +21°C° 0 mm 3 m/S 746 mmHg 65%
    09:00 +23°C° 0 mm 4 m/S 746 mmHg 62%
    10:00 +25°C° 0 mm 4 m/S 746 mmHg 59%
    11:00 +26°C° 0 mm 4 m/S 746 mmHg 57%
    12:00 +26°C° 0 mm 4 m/S 746 mmHg 55%
    13:00 +27°C° 0 mm 4 m/S 746 mmHg 53%
    14:00 +27°C° 0 mm 4 m/S 745 mmHg 54%
    15:00 +27°C° 0 mm 4 m/S 745 mmHg 55%
    16:00 +26°C° 0 mm 4 m/S 745 mmHg 56%
    17:00 +25°C° 0 mm 3 m/S 745 mmHg 60%
    18:00 +24°C° 0 mm 3 m/S 745 mmHg 65%
    19:00 +23°C° 0 mm 2 m/S 745 mmHg 69%
    20:00 +23°C° 0 mm 2 m/S 745 mmHg 69%
    21:00 +21°C° 0 mm 2 m/S 745 mmHg 70%
    22:00 +20°C° 0 mm 2 m/S 745 mmHg 70%
    23:00 +19°C° 0 mm 2 m/S 745 mmHg 71%

    Morgen, 18 Juni, Dienstag

    Zeit Temperatur Niederschläge Wind Luftdruck Luftfeuchtigkeit
    00:00 +20°C° 0 mm 1 m/S 745 mmHg 71%
    01:00 +19°C° 0 mm 1 m/S 745 mmHg 72%
    02:00 +19°C° 0 mm 1 m/S 745 mmHg 74%
    03:00 +18°C° 0 mm 1 m/S 744 mmHg 75%
    04:00 +18°C° 0 mm 1 m/S 744 mmHg 77%
    05:00 +19°C° 0 mm 1 m/S 744 mmHg 74%
    06:00 +20°C° 0 mm 1 m/S 744 mmHg 71%
    07:00 +21°C° 0 mm 1 m/S 744 mmHg 68%
    08:00 +23°C° 0 mm 1 m/S 744 mmHg 64%
    09:00 +24°C° 0 mm 1 m/S 744 mmHg 61%
    10:00 +26°C° 0 mm 1 m/S 744 mmHg 57%
    11:00 +27°C° 0 mm 2 m/S 744 mmHg 54%
    12:00 +28°C° 0 mm 2 m/S 743 mmHg 52%
    13:00 +29°C° 0 mm 3 m/S 743 mmHg 49%
    14:00 +29°C° 0 mm 3 m/S 743 mmHg 51%
    15:00 +29°C° 0 mm 3 m/S 742 mmHg 52%
    16:00 +29°C° 0 mm 3 m/S 742 mmHg 53%
    17:00 +28°C° 0 mm 3 m/S 742 mmHg 58%
    18:00 +27°C° 0 mm 3 m/S 742 mmHg 64%
    19:00 +26°C° 0 mm 3 m/S 742 mmHg 69%
    20:00 +25°C° 0.6 mm 2 m/S 742 mmHg 73%
    21:00 +24°C° 0.6 mm 2 m/S 742 mmHg 77%
    22:00 +23°C° 0.6 mm 2 m/S 742 mmHg 81%
    23:00 +22°C° 0.3 mm 1 m/S 742 mmHg 83%

    übermorgen, 19 Juni, Mittwoch

    Zeit Temperatur Niederschläge Wind Luftdruck Luftfeuchtigkeit
    00:00 +22°C° 0.3 mm 1 m/S 742 mmHg 84%
    01:00 +21°C° 0.3 mm 1 m/S 742 mmHg 86%
    02:00 +21°C° 0.1 mm 1 m/S 742 mmHg 86%
    03:00 +20°C° 0.1 mm 1 m/S 741 mmHg 87%
    04:00 +18°C° 0.1 mm 0 m/S 741 mmHg 88%
    05:00 +21°C° 0.1 mm 1 m/S 741 mmHg 84%
    06:00 +22°C° 0.1 mm 1 m/S 741 mmHg 81%
    07:00 +23°C° 0.1 mm 1 m/S 741 mmHg 77%
    08:00 +25°C° 0 mm 1 m/S 741 mmHg 70%
    09:00 +27°C° 0 mm 1 m/S 741 mmHg 63%
    10:00 +29°C° 0 mm 2 m/S 741 mmHg 56%
    11:00 +30°C° 0 mm 2 m/S 741 mmHg 52%
    12:00 +31°C° 0 mm 2 m/S 741 mmHg 49%
    13:00 +32°C° 0 mm 2 m/S 740 mmHg 46%
    14:00 +31°C° 0.2 mm 3 m/S 740 mmHg 48%
    15:00 +31°C° 0.2 mm 3 m/S 740 mmHg 50%
    16:00 +31°C° 0.2 mm 3 m/S 739 mmHg 52%
    17:00 +28°C° 1.4 mm 3 m/S 739 mmHg 58%
    18:00 +26°C° 1.4 mm 3 m/S 739 mmHg 64%
    19:00 +24°C° 1.4 mm 2 m/S 739 mmHg 70%
    20:00 +23°C° 0.2 mm 2 m/S 740 mmHg 70%
    21:00 +23°C° 0.2 mm 2 m/S 740 mmHg 69%
    22:00 +22°C° 0.2 mm 1 m/S 740 mmHg 69%
    23:00 +22°C° 0 mm 1 m/S 740 mmHg 69%

    20 Juni, Donnerstag

    Zeit Temperatur Niederschläge Wind Luftdruck Luftfeuchtigkeit
    00:00 +22°C° 0 mm 1 m/S 740 mmHg 68%
    01:00 +22°C° 0 mm 1 m/S 740 mmHg 68%
    02:00 +19°C° 0 mm 0 m/S 740 mmHg 70%
    03:00 +19°C° 0 mm 0 m/S 740 mmHg 72%
    04:00 +18°C° 0 mm 0 m/S 740 mmHg 74%
    05:00 +22°C° 0.1 mm 1 m/S 740 mmHg 72%
    06:00 +23°C° 0.1 mm 1 m/S 741 mmHg 70%
    07:00 +24°C° 0.1 mm 2 m/S 741 mmHg 69%
    08:00 +25°C° 0 mm 2 m/S 741 mmHg 63%
    09:00 +27°C° 0 mm 2 m/S 741 mmHg 57%
    10:00 +29°C° 0 mm 2 m/S 741 mmHg 51%
    11:00 +30°C° 0 mm 1 m/S 741 mmHg 48%
    12:00 +31°C° 0 mm 1 m/S 740 mmHg 45%
    13:00 +32°C° 0 mm 1 m/S 740 mmHg 42%
    14:00 +32°C° 0 mm 2 m/S 740 mmHg 44%
    15:00 +31°C° 0 mm 2 m/S 740 mmHg 45%
    16:00 +31°C° 0 mm 2 m/S 739 mmHg 46%
    17:00 +30°C° 0 mm 2 m/S 739 mmHg 51%
    18:00 +29°C° 0 mm 2 m/S 739 mmHg 56%
    19:00 +28°C° 0 mm 2 m/S 739 mmHg 60%
    20:00 +27°C° 0 mm 2 m/S 739 mmHg 64%
    21:00 +26°C° 0 mm 2 m/S 740 mmHg 67%
    22:00 +25°C° 0 mm 2 m/S 740 mmHg 71%
    23:00 +22°C° 0.7 mm 3 m/S 740 mmHg 74%

    21 Juni, Freitag

    Zeit Temperatur Niederschläge Wind Luftdruck Luftfeuchtigkeit
    00:00 +21°C° 0.7 mm 4 m/S 740 mmHg 76%
    01:00 +20°C° 0.7 mm 6 m/S 741 mmHg 79%
    02:00 +19°C° 0 mm 5 m/S 741 mmHg 79%
    03:00 +19°C° 0 mm 5 m/S 741 mmHg 80%
    04:00 +19°C° 0 mm 5 m/S 741 mmHg 80%
    05:00 +20°C° 0 mm 5 m/S 741 mmHg 77%
    06:00 +21°C° 0 mm 5 m/S 742 mmHg 74%
    07:00 +22°C° 0 mm 5 m/S 742 mmHg 71%
    08:00 +23°C° 0 mm 5 m/S 742 mmHg 66%
    09:00 +25°C° 0 mm 5 m/S 742 mmHg 61%
    10:00 +26°C° 0 mm 5 m/S 743 mmHg 56%
    11:00 +27°C° 0 mm 5 m/S 742 mmHg 53%
    12:00 +28°C° 0 mm 4 m/S 742 mmHg 50%
    13:00 +29°C° 0 mm 4 m/S 742 mmHg 47%
    14:00 +30°C° 0 mm 3 m/S 742 mmHg 48%
    15:00 +30°C° 0 mm 3 m/S 742 mmHg 48%
    16:00 +30°C° 0 mm 3 m/S 742 mmHg 48%
    17:00 +29°C° 0 mm 2 m/S 742 mmHg 53%
    18:00 +28°C° 0 mm 2 m/S 742 mmHg 59%
    19:00 +27°C° 0 mm 2 m/S 742 mmHg 64%
    20:00 +26°C° 0 mm 1 m/S 742 mmHg 68%
    21:00 +24°C° 0 mm 1 m/S 742 mmHg 71%
    22:00 +21°C° 0 mm 0 m/S 743 mmHg 74%
    23:00 +21°C° 0 mm 0 m/S 743 mmHg 76%

    22 Juni, Samstag

    Zeit Temperatur Niederschläge Wind Luftdruck Luftfeuchtigkeit
    00:00 +23°C° 0 mm 1 m/S 742 mmHg 79%
    01:00 +22°C° 0 mm 1 m/S 742 mmHg 81%
    02:00 +22°C° 0.3 mm 1 m/S 742 mmHg 83%
    03:00 +21°C° 0.3 mm 1 m/S 742 mmHg 85%
    04:00 +20°C° 0.3 mm 1 m/S 742 mmHg 87%
    05:00 +20°C° 0.1 mm 2 m/S 742 mmHg 84%
    06:00 +21°C° 0.1 mm 2 m/S 742 mmHg 81%
    07:00 +23°C° 0.1 mm 2 m/S 742 mmHg 78%
    08:00 +25°C° 0.1 mm 1 m/S 742 mmHg 72%
    09:00 +26°C° 0.1 mm 1 m/S 742 mmHg 66%
    10:00 +28°C° 0.1 mm 1 m/S 742 mmHg 60%
    11:00 +29°C° 0.3 mm 2 m/S 741 mmHg 59%
    12:00 +29°C° 0.3 mm 3 m/S 741 mmHg 57%
    13:00 +30°C° 0.3 mm 4 m/S 740 mmHg 55%
    14:00 +29°C° 0.7 mm 4 m/S 740 mmHg 58%
    15:00 +29°C° 0.7 mm 4 m/S 739 mmHg 61%
    16:00 +28°C° 0.7 mm 4 m/S 739 mmHg 63%
    17:00 +28°C° 0.7 mm 3 m/S 739 mmHg 65%
    18:00 +27°C° 0.7 mm 3 m/S 739 mmHg 67%
    19:00 +26°C° 0.7 mm 2 m/S 739 mmHg 69%
    20:00 +25°C° 1.7 mm 3 m/S 739 mmHg 75%
    21:00 +24°C° 1.7 mm 3 m/S 739 mmHg 81%
    22:00 +21°C° 1.7 mm 3 m/S 739 mmHg 87%
    23:00 +21°C° 0.1 mm 4 m/S 740 mmHg 88%
    Mehr zeigen